Location: Unspecified
(0.0000°N, 0.0000°E)
Time: 01:44:54
(UTC+01:00)

Cosmos 1263 Rocket - Visible Passes

Search period start: 31 January 2015 00:00
Search period end: 10 February 2015 00:00
Orbit: 302 x 494 km, 82.9° (Epoch: 29 January)

Date Brightness Start Highest point End Pass type
(mag) Time Alt. Az. Time Alt. Az. Time Alt. Az.
31 Jan 3.4 20:47:52 10° NNW 20:51:21 40° W 20:54:50 10° SSW visible
01 Feb 2.8 19:56:11 10° NNE 19:59:27 31° E 20:02:47 10° SSE visible
02 Feb 3.8 20:37:03 10° NNW 20:40:25 33° W 20:43:45 10° SSW visible
03 Feb 2.6 19:44:52 10° NNE 19:48:16 37° E 19:51:41 10° SSE visible
04 Feb 4.3 20:25:44 10° NNW 20:28:57 28° W 20:32:05 10° SSW visible
05 Feb 2.4 19:33:02 10° NNE 19:36:32 43° E 19:40:01 10° SSE visible
06 Feb 4.6 20:13:55 10° NW 20:16:56 24° W 20:19:52 10° SSW visible
08 Feb 5.0 20:01:33 10° NW 20:04:23 21° W 20:07:04 10° SW visible
